Location: *
(40.7873°S, 98.7174°E)
Time: 10:38:55
(UTC+00:00)

Kosmos-1816 - Pass Details

Date: 21 June 2024
Orbit: 959 x 1007 km, 82.9° (Epoch: 23 July)

Event Time Altitude Azimuth Distance (km) Brightness Sun altitude
Rises 10:27:51 0° 168° (SSE) 3,765 8.7 -4.7°
Reaches altitude 10° 10:32:52 10° 134° (SE) 2,795 7.8 -5.6°
Maximum altitude 10:34:41 11° 118° (ESE) 2,699 7.6 -5.9°
Drops below altitude 10° 10:36:29 10° 101° (E) 2,778 7.8 -6.2°
Sets 10:41:23 0° 67° (ENE) 3,701 8.6 -7.0°
